TimeEST,TemperatureF,Dew PointF,Humidity,Sea Level PressureIn,VisibilityMPH,Wind Direction,Wind SpeedMPH,Gust SpeedMPH,PrecipitationIn,Events,Conditions,WindDirDegrees,DateUTC
12:53 AM,37.9,32.0,79,29.82,9.0,Calm,Calm,-,N/A,,Clear,0,2011-12-31 05:53:00
1:53 AM,36.0,30.9,82,29.82,8.0,Calm,Calm,-,N/A,,Clear,0,2011-12-31 06:53:00
2:53 AM,37.0,32.0,82,29.85,8.0,NNW,4.6,-,N/A,,Scattered Clouds,330,2011-12-31 07:53:00
3:53 AM,37.9,34.0,86,29.85,9.0,Calm,Calm,-,0.00,,Overcast,0,2011-12-31 08:53:00
4:53 AM,39.0,33.1,79,29.84,10.0,Calm,Calm,-,N/A,,Mostly Cloudy,0,2011-12-31 09:53:00
5:53 AM,39.2,33.8,81,29.84,10.0,SW,3.5,-,N/A,,Overcast,230,2011-12-31 10:53:00
7:53 AM,35.1,30.9,85,29.86,9.0,SSE,3.5,-,N/A,,Clear,160,2011-12-31 12:53:00
8:53 AM,39.9,37.0,89,29.88,6.0,SW,3.5,-,N/A,,Clear,230,2011-12-31 13:53:00
9:53 AM,50.0,41.0,71,29.89,10.0,SW,5.8,-,N/A,,Mostly Cloudy,230,2011-12-31 14:53:00
10:53 AM,54.0,39.0,57,29.91,10.0,West,17.3,24.2,0.00,,Overcast,260,2011-12-31 15:53:00
11:53 AM,52.0,37.9,59,29.92,10.0,West,19.6,24.2,N/A,,Overcast,260,2011-12-31 16:53:00
12:53 PM,52.0,37.9,59,29.93,10.0,West,13.8,-,N/A,,Overcast,270,2011-12-31 17:53:00
1:53 PM,51.1,37.0,59,29.94,10.0,WNW,12.7,18.4,N/A,,Overcast,290,2011-12-31 18:53:00
2:53 PM,51.1,37.0,59,29.96,10.0,WNW,10.4,-,N/A,,Overcast,290,2011-12-31 19:53:00
3:53 PM,50.0,37.9,63,30.00,10.0,West,8.1,-,N/A,,Overcast,260,2011-12-31 20:53:00
4:53 PM,50.0,37.0,61,30.03,10.0,WNW,11.5,-,N/A,,Overcast,300,2011-12-31 21:53:00
5:53 PM,48.9,37.0,64,30.06,10.0,WSW,5.8,-,N/A,,Overcast,250,2011-12-31 22:53:00
6:53 PM,50.0,36.0,59,30.09,10.0,West,6.9,-,N/A,,Overcast,280,2011-12-31 23:53:00
7:53 PM,48.9,36.0,61,30.11,10.0,WNW,6.9,-,N/A,,Overcast,290,2012-01-01 00:53:00
8:53 PM,48.0,36.0,63,30.11,10.0,West,3.5,-,N/A,,Overcast,280,2012-01-01 01:53:00
9:53 PM,46.9,37.0,68,30.12,10.0,WNW,4.6,-,N/A,,Overcast,300,2012-01-01 02:53:00
10:53 PM,48.0,36.0,63,30.11,10.0,Calm,Calm,-,N/A,,Overcast,0,2012-01-01 03:53:00